2023/11/13 00:00:00, 0.0, 5.1
2023/11/13 00:10:00, 0.0, 4.9
2023/11/13 00:20:00, 0.0, 4.9
2023/11/13 00:30:00, 0.0, 4.5
2023/11/13 00:40:00, 0.0, 4.5
2023/11/13 00:50:00, 0.0, 3.9
2023/11/13 01:00:00, 0.0, 3.9
2023/11/13 01:10:00, 0.0, 3.5
2023/11/13 01:20:00, 0.0, 3.0
2023/11/13 01:30:00, 0.0, 3.1
2023/11/13 01:40:00, 0.0, 2.4
2023/11/13 01:50:00, 0.0, 2.8
2023/11/13 02:00:00, 0.0, 2.3
2023/11/13 02:10:00, 0.0, 1.7
2023/11/13 02:20:00, 0.0, 1.5
2023/11/13 02:30:00, 0.0, 1.7
2023/11/13 02:40:00, 0.0, 1.7
2023/11/13 02:50:00, 0.0, 1.7
2023/11/13 03:00:00, 0.0, 1.7
2023/11/13 03:10:00, 0.1, 1.3
2023/11/13 03:20:00, 0.3, 1.7
2023/11/13 03:30:00, 0.5, 1.7
2023/11/13 03:40:00, 0.9, 1.4
2023/11/13 03:50:00, 1.1, 1.4
2023/11/13 04:00:00, 1.3, 1.5
2023/11/13 04:10:00, 1.4, 1.5
2023/11/13 04:20:00, 1.6, 1.5
2023/11/13 04:30:00, 1.8, 1.4
2023/11/13 04:40:00, 2.1, 1.3
2023/11/13 04:50:00, 2.4, 1.3
2023/11/13 05:00:00, 2.8, 1.5
2023/11/13 05:10:00, 2.8, 1.4
2023/11/13 05:20:00, 3.8, 1.5
2023/11/13 05:30:00, 4.4, 1.5
2023/11/13 05:40:00, 4.6, 1.6
2023/11/13 05:50:00, 5.0, 1.4
2023/11/13 06:00:00, 5.7, 1.3
2023/11/13 06:10:00, 6.3, 1.6
2023/11/13 06:20:00, 6.7, 1.4
2023/11/13 06:30:00, 7.5, 0.9
2023/11/13 06:40:00, 8.1, 1.3
2023/11/13 06:50:00, 9.0, 1.0
2023/11/13 07:00:00, 9.5, 1.3
2023/11/13 07:10:00,10.2, 1.5
2023/11/13 07:20:00,11.2, 1.6
2023/11/13 07:30:00,12.3, 1.3
2023/11/13 07:40:00,12.7, 1.3
2023/11/13 07:50:00,13.2, 1.2
2023/11/13 08:00:00,13.9, 1.5
2023/11/13 08:10:00,14.3, 1.2
2023/11/13 08:20:00,15.0, 1.5
2023/11/13 08:30:00,15.6, 1.7
2023/11/13 08:40:00,16.2, 1.6
2023/11/13 08:50:00,16.8, 1.5
2023/11/13 09:40:00,13.6, 1.6
2023/11/13 09:50:00,19.5, 1.9
2023/11/13 10:00:00,19.6, 2.3
2023/11/13 10:10:00,19.9, 2.1
2023/11/13 10:20:00,20.4, 2.1
2023/11/13 10:30:00,20.8, 1.9
2023/11/13 10:40:00,20.8, 2.0
2023/11/13 10:50:00,21.0, 2.2
2023/11/13 11:00:00,20.8, 3.5
2023/11/13 11:10:00,19.8, 3.1
2023/11/13 11:20:00,16.9, 2.4
2023/11/13 11:30:00,17.4, 2.2
2023/11/13 11:40:00,17.8, 2.5
2023/11/13 11:50:00,17.9, 3.8
2023/11/13 12:00:00,17.7, 5.6
2023/11/13 12:10:00,17.4, 6.7
2023/11/13 12:20:00,17.1, 6.3
2023/11/13 12:30:00,16.9, 4.1
2023/11/13 12:40:00,16.9, 6.8
2023/11/13 12:50:00,16.9, 7.2
2023/11/13 13:00:00,16.7, 5.9
2023/11/13 13:10:00,16.2, 4.5
2023/11/13 13:20:00,15.9, 3.7
2023/11/13 13:30:00,15.5, 3.1
2023/11/13 13:40:00,15.4, 3.5
2023/11/13 13:50:00,15.3, 3.6
2023/11/13 14:00:00,15.2, 3.1
2023/11/13 14:10:00,15.0, 2.7
2023/11/13 14:20:00,14.9, 2.9
2023/11/13 14:30:00,14.8, 2.8
2023/11/13 14:40:00,14.8, 2.6
2023/11/13 14:50:00,14.7, 2.6
2023/11/13 15:00:00,14.8, 3.1
2023/11/13 15:10:00,14.9, 3.5
2023/11/13 15:20:00,15.0, 4.2
2023/11/13 15:30:00,14.9, 4.2
2023/11/13 15:40:00,14.7, 3.8
2023/11/13 15:50:00,14.6, 3.5
2023/11/13 16:00:00,14.6, 3.1
2023/11/13 16:10:00,14.3, 2.5
2023/11/13 16:20:00,14.1, 2.4
2023/11/13 16:30:00,14.1, 2.2
2023/11/13 16:40:00,14.3, 2.4
2023/11/13 16:50:00,14.2, 2.0
2023/11/13 17:00:00,14.0, 1.5
2023/11/13 17:10:00,14.0, 1.7
2023/11/13 17:20:00,14.0, 1.5
2023/11/13 17:30:00,13.7, 1.6
2023/11/13 17:40:00,13.6, 1.6
2023/11/13 17:50:00,13.4, 1.7
2023/11/13 18:00:00,13.2, 2.1
2023/11/13 18:10:00,13.2, 1.7
2023/11/13 18:20:00,13.3, 1.7
2023/11/13 18:30:00,13.4, 1.7
2023/11/13 18:40:00,13.4, 2.0
2023/11/13 18:50:00,13.5, 1.5
2023/11/13 19:00:00,13.6, 1.6
2023/11/13 19:10:00,13.9, 1.9
2023/11/13 19:20:00,13.5, 2.0
2023/11/13 19:30:00,13.3, 2.0
2023/11/13 19:40:00,13.3, 1.7
2023/11/13 19:50:00,13.2, 1.9
2023/11/13 20:00:00,13.2, 1.8
2023/11/13 20:10:00,13.1, 1.9
2023/11/13 20:20:00,13.2, 1.9
2023/11/13 20:30:00,13.1, 1.7
2023/11/13 20:40:00,13.1, 2.0
2023/11/13 20:50:00,13.1, 1.7
2023/11/13 21:00:00,13.1, 1.9
2023/11/13 21:10:00,13.1, 2.0
2023/11/13 21:20:00,13.1, 1.8
2023/11/13 21:30:00,13.1, 1.8
2023/11/13 21:40:00,13.0, 2.4
2023/11/13 21:50:00,13.0, 1.8
2023/11/13 22:00:00,13.0, 2.2
2023/11/13 22:10:00,13.0, 1.8
2023/11/13 22:20:00,13.0, 1.8
2023/11/13 22:30:00,13.0, 2.0
2023/11/13 22:40:00,13.0, 2.0
2023/11/13 22:50:00,13.1, 1.9
2023/11/13 23:00:00,13.1, 1.8
2023/11/13 23:10:00,13.1, 1.8
2023/11/13 23:20:00,13.2, 1.4
2023/11/13 23:30:00,13.0, 1.5
2023/11/13 23:40:00,13.0, 1.5
2023/11/13 23:50:00,12.7, 2.1
